TimeEST,TemperatureF,Dew PointF,Humidity,Sea Level PressureIn,VisibilityMPH,Wind Direction,Wind SpeedMPH,Gust SpeedMPH,PrecipitationIn,Events,Conditions,WindDirDegrees,DateUTC
12:31 AM,53.6,51.8,94,30.05,0.8,Calm,Calm,-,N/A,,Mostly Cloudy,0,2012-12-09 05:31:00
12:43 AM,53.6,51.8,94,30.05,2.0,Calm,Calm,-,N/A,,Mostly Cloudy,0,2012-12-09 05:43:00
12:53 AM,53.1,52.0,96,30.01,4.0,South,4.6,-,N/A,,Mostly Cloudy,190,2012-12-09 05:53:00
1:53 AM,53.1,52.0,96,30.01,4.0,North,3.5,-,0.00,,Overcast,360,2012-12-09 06:53:00
2:46 AM,51.8,51.8,100,30.06,2.0,Calm,Calm,-,0.00,,Overcast,0,2012-12-09 07:46:00
2:53 AM,52.0,51.1,97,30.01,1.5,South,3.5,-,0.00,,Mostly Cloudy,190,2012-12-09 07:53:00
3:00 AM,53.6,51.8,94,30.06,3.0,SSW,4.6,-,N/A,,Mostly Cloudy,200,2012-12-09 08:00:00
3:53 AM,55.0,53.1,93,30.01,6.0,South,4.6,-,0.01,,Mostly Cloudy,190,2012-12-09 08:53:00
4:39 AM,48.2,46.4,93,30.05,1.8,Calm,Calm,-,N/A,,Partly Cloudy,0,2012-12-09 09:39:00
4:45 AM,48.2,46.4,93,30.05,0.2,North,3.5,-,N/A,Fog,Fog,10,2012-12-09 09:45:00
4:53 AM,48.0,46.9,96,30.02,0.2,NNE,4.6,-,N/A,Fog,Fog,20,2012-12-09 09:53:00
5:03 AM,48.2,48.2,100,30.06,0.2,North,3.5,-,N/A,Fog,Fog,10,2012-12-09 10:03:00
5:53 AM,48.0,46.9,96,30.03,0.2,Calm,Calm,-,N/A,Fog,Fog,0,2012-12-09 10:53:00
6:53 AM,48.9,48.0,97,30.04,0.5,Calm,Calm,-,N/A,Fog,Fog,0,2012-12-09 11:53:00
7:00 AM,48.2,48.2,100,30.08,0.5,Calm,Calm,-,N/A,Fog,Fog,0,2012-12-09 12:00:00
7:28 AM,50.0,48.2,94,30.08,0.2,Calm,Calm,-,N/A,Fog,Fog,0,2012-12-09 12:28:00
7:36 AM,50.0,48.2,94,30.09,0.2,Calm,Calm,-,N/A,Fog,Fog,0,2012-12-09 12:36:00
7:44 AM,50.0,48.2,94,30.10,0.2,Calm,Calm,-,N/A,Fog,Fog,0,2012-12-09 12:44:00
7:53 AM,51.1,50.0,96,30.06,0.2,Calm,Calm,-,N/A,Fog,Fog,0,2012-12-09 12:53:00
8:53 AM,52.0,51.1,97,30.06,0.2,Calm,Calm,-,N/A,Fog,Fog,0,2012-12-09 13:53:00
9:53 AM,54.0,53.1,97,30.07,0.2,Calm,Calm,-,N/A,Fog,Fog,0,2012-12-09 14:53:00
10:53 AM,54.0,54.0,100,30.07,0.5,Calm,Calm,-,N/A,Fog,Fog,0,2012-12-09 15:53:00
11:14 AM,53.6,53.6,100,30.10,0.2,Calm,Calm,-,N/A,Fog,Fog,0,2012-12-09 16:14:00
11:29 AM,53.6,53.6,100,30.10,0.8,NNW,3.5,-,N/A,,Mist,330,2012-12-09 16:29:00
11:40 AM,55.4,53.6,94,30.10,1.2,Calm,Calm,-,N/A,,Overcast,0,2012-12-09 16:40:00
11:53 AM,55.0,54.0,96,30.05,2.0,Calm,Calm,-,N/A,,Overcast,0,2012-12-09 16:53:00
12:09 PM,55.4,55.4,100,30.08,3.0,Calm,Calm,-,N/A,,Overcast,0,2012-12-09 17:09:00
12:43 PM,60.8,55.4,82,30.06,6.0,Calm,Calm,-,N/A,,Overcast,0,2012-12-09 17:43:00
12:53 PM,61.0,55.9,83,30.02,6.0,SSE,3.5,-,N/A,,Haze,150,2012-12-09 17:53:00
1:53 PM,64.0,55.9,75,30.00,10.0,Variable,4.6,-,N/A,,Overcast,0,2012-12-09 18:53:00
2:53 PM,64.9,57.0,75,29.99,10.0,South,8.1,-,N/A,,Partly Cloudy,190,2012-12-09 19:53:00
3:53 PM,66.0,55.0,68,29.99,10.0,South,11.5,17.3,N/A,,Clear,190,2012-12-09 20:53:00
4:53 PM,64.9,55.0,70,29.99,10.0,SSW,8.1,-,N/A,,Clear,200,2012-12-09 21:53:00
5:53 PM,61.0,55.0,81,29.99,10.0,Calm,Calm,-,N/A,,Clear,0,2012-12-09 22:53:00
6:53 PM,60.1,55.9,86,30.00,9.0,South,5.8,-,N/A,,Clear,180,2012-12-09 23:53:00
7:27 PM,60.8,55.4,82,30.03,8.0,South,3.5,-,N/A,,Mostly Cloudy,190,2012-12-10 00:27:00
7:53 PM,59.0,55.9,90,29.99,8.0,South,4.6,-,N/A,,Mostly Cloudy,190,2012-12-10 00:53:00
8:05 PM,59.0,55.4,88,30.03,7.0,South,4.6,-,N/A,,Scattered Clouds,190,2012-12-10 01:05:00
8:18 PM,59.0,55.4,88,30.03,7.0,South,4.6,-,N/A,,Mostly Cloudy,190,2012-12-10 01:18:00
8:53 PM,60.1,57.0,90,29.98,7.0,SSW,5.8,-,N/A,,Overcast,200,2012-12-10 01:53:00
9:53 PM,60.1,57.0,90,29.97,7.0,South,5.8,-,N/A,,Overcast,190,2012-12-10 02:53:00
10:53 PM,59.0,57.0,93,29.95,7.0,South,8.1,-,N/A,,Mostly Cloudy,190,2012-12-10 03:53:00
11:05 PM,59.0,57.2,94,29.98,7.0,South,9.2,-,N/A,,Mostly Cloudy,190,2012-12-10 04:05:00
11:37 PM,59.0,57.2,94,29.99,7.0,SSW,8.1,-,N/A,,Mostly Cloudy,210,2012-12-10 04:37:00
11:45 PM,59.0,57.2,94,29.99,7.0,SSW,6.9,-,N/A,,Mostly Cloudy,200,2012-12-10 04:45:00
11:53 PM,59.0,57.0,93,29.95,7.0,SSW,5.8,-,N/A,,Overcast,210,2012-12-10 04:53:00